This is the latest recevied weather packets stored in our database for station/object KC7UNY-13. If no packets are shown the sender has not sent any weather packets the latest 10 day(s).
| Time | Temp. | Humidity | Pressure | Rain* | Wind** | Luminosity | Snow |
|---|---|---|---|---|---|---|---|
| 1776910440 | 27.22° C | 19% | 1010.6 hPa | 0 mm | - | 1 W/m² | - |
| 1776910137 | 27.78° C | 19% | 1010.7 hPa | 0 mm | - | 1 W/m² | - |
| 1776909834 | 27.78° C | 19% | 1010.7 hPa | 0 mm | - | 3 W/m² | - |
| 1776909531 | 27.78° C | 19% | 1010.8 hPa | 0 mm | - | 5 W/m² | - |
| 1776909228 | 27.78° C | 19% | 1010.7 hPa | 0 mm | - | 7 W/m² | - |
| 1776908926 | 28.33° C | 19% | 1010.7 hPa | 0 mm | - | 10 W/m² | - |
| 1776908623 | 28.33° C | 19% | 1010.8 hPa | 0 mm | - | 13 W/m² | - |
| 1776908320 | 28.33° C | 20% | 1010.7 hPa | 0 mm | - | 15 W/m² | - |
| 1776908016 | 28.33° C | 20% | 1011 hPa | 0 mm | - | 20 W/m² | - |
| 1776907713 | 28.89° C | 20% | 1010.7 hPa | 0 mm | - | 20 W/m² | - |
| 1776907410 | 28.89° C | 20% | 1010.8 hPa | 0 mm | - | 26 W/m² | - |
| 1776907107 | 29.44° C | 20% | 1010.9 hPa | 0 mm | - | 43 W/m² | - |
| 1776906804 | 29.44° C | 20% | 1010.9 hPa | 0 mm | - | 49 W/m² | - |
| 1776906501 | 29.44° C | 20% | 1010.9 hPa | 0 mm | - | 42 W/m² | - |
| 1776906198 | 30° C | 20% | 1011.1 hPa | 0 mm | - | 65 W/m² | - |
| 1776905895 | 30° C | 20% | 1011.1 hPa | 0 mm | - | 74 W/m² | - |
| 1776905590 | 30° C | 21% | 1011 hPa | 0 mm | - | 82 W/m² | - |
| 1776905286 | 30° C | 21% | 1011 hPa | 0 mm | - | 92 W/m² | - |
| 1776904983 | 30° C | 21% | 1010.9 hPa | 0 mm | - | 103 W/m² | - |
| 1776904680 | 30.56° C | 21% | 1011 hPa | 0 mm | - | 115 W/m² | - |
| 1776904378 | 30° C | 21% | 1011 hPa | 0 mm | - | 127 W/m² | - |
| 1776904074 | 30.56° C | 21% | 1011.1 hPa | 0 mm | - | 117 W/m² | - |
| 1776903769 | 30.56° C | 20% | 1010.9 hPa | 0 mm | - | 150 W/m² | - |
| 1776903465 | 31.11° C | 20% | 1011.1 hPa | 0 mm | - | 159 W/m² | - |
| 1776903157 | 31.11° C | 20% | 1011 hPa | 0 mm | - | 172 W/m² | - |
* Rain latest hour (hover to see other rain measurements)
** Current wind speed in m/s (hover to see current wind gust speed)